Cairns, Australia

10:17 AM AEST on September 22, 2017 (GMT +1000)
Cairns International

Weather History for YBCS - April, 2012

Change the Weather History Date:

Friday, April 27, 2012

  Actual Average Record
Temperature  
Mean Temperature 79 °F -  
Max Temperature 85 °F 82 °F 86 °F (1998)
Min Temperature 73 °F 68 °F 61 °F (2015)
Cooling Degree Days 14    
Growing Degree Days 29 (Base 50)    
Moisture  
Dew Point 70 °F    
Average Humidity 75    
Maximum Humidity 88    
Minimum Humidity 54    
Precipitation  
Precipitation 0.00 in 0.16 in - ()
Sea Level Pressure  
Sea Level Pressure 29.90 in    
Wind  
Wind Speed 8 mph ()    
Max Wind Speed 14 mph    
Max Gust Speed -    
Visibility 7.3 miles    
Events Rain    
Averages and records for this station are not official NWS values.
T = Trace of Precipitation, MM = Missing Value Source: Averaged Metar Reports

Daily Weather History Graph

Daily Weather History Graph

Search for Another Location

Airport or City:

Trip Planner

Search our weather history database for the weather conditions in past years. The results will help you decide how hot, cold, wet, or windy it might be!

Date:

Astronomy

Apr. 27, 2012 Rise Set
Actual Time 6:28 AM AEST 6:00 PM AEST
Civil Twilight 6:06 AM AEST 6:23 PM AEST
Nautical Twilight 5:40 AM AEST 6:48 PM AEST
Astronomical Twilight 5:14 AM AEST 7:14 PM AEST
Moon 11:02 AM AEST (4/27) 10:34 PM AEST (4/27)
Length of Visible Light 12h 17m
Length of Day
11h 32m
Waxing Crescent, 27% of the Moon is Illuminated
Apr 27
Waxing Crescent
Apr 29
First Quarter
May 6
Full
May 13
Last Quarter
May 21
New

Hourly Weather History & Observations

Time (AEST) Temp. Heat Index Dew Point Humidity Pressure Visibility Wind Dir Wind Speed Gust Speed Precip Events Conditions
12:00 AM 76 °F - 70 °F 76% 29.91 in - SSE 9.2 mph - -   Overcast
12:00 AM 77.0 °F - 69.8 °F 78% 29.92 in 6.2 mi SSE 9.2 mph - N/A   Scattered Clouds
12:30 AM 77.0 °F - 69.8 °F 78% 29.89 in 6.2 mi South 9.2 mph - N/A   Mostly Cloudy
1:00 AM 77 °F - 69 °F 68% 29.91 in - South 8.1 mph - -  
1:00 AM 77.0 °F - 68.0 °F 74% 29.89 in 6.2 mi South 8.1 mph - N/A   Mostly Cloudy
1:30 AM 77.0 °F - 68.0 °F 74% 29.89 in 6.2 mi South 8.1 mph - N/A   Scattered Clouds
2:00 AM 75.2 °F - 69.8 °F 83% 29.89 in 6.2 mi East 6.9 mph - N/A   Mostly Cloudy
2:30 AM 75.2 °F - 68.0 °F 78% 29.89 in 6.2 mi SSE 6.9 mph - N/A   Mostly Cloudy
3:00 AM 77 °F - 67 °F 64% 29.88 in - SSW 4.6 mph - -  
3:00 AM 77.0 °F - 66.2 °F 69% 29.86 in 6.2 mi SSW 4.6 mph - N/A   Mostly Cloudy
3:30 AM 75.2 °F - 69.8 °F 83% 29.89 in 6.2 mi SE 10.4 mph - N/A   Mostly Cloudy
4:00 AM 75 °F - 68 °F 74% 29.90 in - ESE 5.8 mph - -  
4:00 AM 75.2 °F - 68.0 °F 78% 29.89 in 6.2 mi ESE 5.8 mph - N/A   Mostly Cloudy
4:30 AM 75.2 °F - 69.8 °F 83% 29.89 in 6.2 mi Calm Calm - N/A   Mostly Cloudy
5:00 AM 75.2 °F - 68.0 °F 78% 29.89 in 6.2 mi SSW 2.3 mph - N/A   Mostly Cloudy
5:30 AM 75.2 °F - 68.0 °F 78% 29.89 in 6.2 mi South 6.9 mph - N/A   Scattered Clouds
6:00 AM 76 °F - 68 °F 71% 29.90 in 19 mi Calm Calm - -   Partly Cloudy
6:00 AM 75.2 °F - 68.0 °F 78% 29.89 in 6.2 mi Calm Calm - N/A   Scattered Clouds
6:30 AM 77.0 °F - 68.0 °F 74% 29.89 in 6.2 mi South 8.1 mph - N/A   Mostly Cloudy
7:00 AM 76 °F - 69 °F 72% 29.91 in - South 5.8 mph - -  
7:00 AM 77.0 °F - 68.0 °F 74% 29.89 in 6.2 mi South 5.8 mph - N/A   Mostly Cloudy
7:30 AM 75.2 °F - 69.8 °F 83% 29.92 in 6.2 mi SE 11.5 mph - N/A   Mostly Cloudy
8:00 AM 75.2 °F - 69.8 °F 83% 29.92 in 6.2 mi SSE 10.4 mph - N/A   Mostly Cloudy
8:30 AM 75.2 °F - 69.8 °F 83% 29.92 in 6.2 mi SSE 9.2 mph - N/A   Mostly Cloudy
9:00 AM 79 °F - 71 °F 72% 29.94 in 9 mi South 5.8 mph - - Rain Light Rain Showers
9:00 AM 78.8 °F - 71.6 °F 78% 29.92 in 6.2 mi South 5.8 mph - N/A   Mostly Cloudy
9:30 AM 80.6 °F 84.6 °F 71.6 °F 74% 29.95 in 6.2 mi South 8.1 mph - N/A   Mostly Cloudy
10:00 AM 80 °F - 70 °F 63% 29.95 in - South 9.2 mph - -  
10:00 AM 78.8 °F - 69.8 °F 74% 29.95 in 6.2 mi South 9.2 mph - N/A   Mostly Cloudy
10:30 AM 80.6 °F 83.9 °F 69.8 °F 70% 29.95 in 6.2 mi South 9.2 mph - N/A   Mostly Cloudy
11:00 AM 82.4 °F 86.3 °F 69.8 °F 66% 29.92 in 6.2 mi South 6.9 mph - N/A   Mostly Cloudy
11:30 AM 84.2 °F 89.6 °F 71.6 °F 66% 29.92 in 6.2 mi SSE 9.2 mph - N/A   Mostly Cloudy
12:00 PM 85 °F - 71 °F 54% 29.91 in 19 mi South 8.1 mph - -   Partly Cloudy
12:00 PM 84.2 °F 89.6 °F 71.6 °F 66% 29.89 in 6.2 mi South 8.1 mph - N/A   Mostly Cloudy
12:30 PM 84.2 °F 89.6 °F 71.6 °F 66% 29.89 in 6.2 mi SSE 6.9 mph - N/A   Scattered Clouds
1:00 PM 84 °F - 70 °F 55% 29.88 in - ESE 10.4 mph - -  
1:00 PM 84.2 °F 88.4 °F 69.8 °F 62% 29.86 in 6.2 mi ESE 10.4 mph - N/A   Mostly Cloudy
1:30 PM 84.2 °F 90.9 °F 73.4 °F 70% 29.86 in 6.2 mi ENE 8.1 mph - N/A   Mostly Cloudy
2:00 PM 84.2 °F 90.9 °F 73.4 °F 70% 29.86 in 6.2 mi NE 9.2 mph - N/A   Mostly Cloudy
2:30 PM 84.2 °F 89.6 °F 71.6 °F 66% 29.86 in 6.2 mi East 10.4 mph - N/A   Mostly Cloudy
3:00 PM 84 °F - 72 °F 60% 29.86 in 19 mi East 9.2 mph - -   Mostly Cloudy
3:00 PM 84.2 °F 89.6 °F 71.6 °F 66% 29.86 in 6.2 mi East 9.2 mph - N/A   Mostly Cloudy
3:30 PM 82.4 °F 87.2 °F 71.6 °F 70% 29.86 in 6.2 mi South 10.4 mph - N/A Rain Light Rain Showers
4:00 PM 79 °F - 71 °F 69% 29.88 in - South 11.5 mph - -  
4:00 PM 78.8 °F - 71.6 °F 78% 29.86 in 6.2 mi South 11.5 mph - N/A   Mostly Cloudy
4:30 PM 78.8 °F - 71.6 °F 78% 29.86 in 6.2 mi South 12.7 mph - N/A   Mostly Cloudy
5:00 PM 78.8 °F - 71.6 °F 78% 29.86 in 6.2 mi South 11.5 mph - N/A   Mostly Cloudy
5:30 PM 78.8 °F - 71.6 °F 78% 29.89 in 6.2 mi South 10.4 mph - N/A   Mostly Cloudy
6:00 PM 77 °F - 69 °F 71% 29.90 in 19 mi South 13.8 mph - -   Mostly Cloudy
6:00 PM 77.0 °F - 69.8 °F 78% 29.89 in 6.2 mi South 13.8 mph - N/A   Mostly Cloudy
6:30 PM 77.0 °F - 69.8 °F 78% 29.89 in 6.2 mi South 11.5 mph - N/A   Mostly Cloudy
7:00 PM 76 °F - 69 °F 73% 29.91 in - South 11.5 mph - -  
7:00 PM 75.2 °F - 69.8 °F 83% 29.89 in 6.2 mi South 11.5 mph - N/A   Scattered Clouds
7:30 PM 75.2 °F - 69.8 °F 83% 29.89 in 6.2 mi South 11.5 mph - N/A   Scattered Clouds
8:00 PM 75.2 °F - 69.8 °F 83% 29.92 in 6.2 mi South 11.5 mph - N/A   Mostly Cloudy
8:30 PM 75.2 °F - 68.0 °F 78% 29.92 in 6.2 mi South 11.5 mph - N/A   Mostly Cloudy
9:00 PM 75 °F - 69 °F 77% 29.94 in 12 mi South 10.4 mph - -   Partly Cloudy
9:00 PM 75.2 °F - 69.8 °F 83% 29.92 in 6.2 mi South 10.4 mph - N/A   Mostly Cloudy
9:30 PM 75.2 °F - 69.8 °F 83% 29.92 in 6.2 mi South 10.4 mph - N/A   Mostly Cloudy
10:00 PM 74 °F - 69 °F 81% 29.94 in - South 11.5 mph - -  
10:00 PM 75.2 °F - 69.8 °F 83% 29.92 in 6.2 mi South 11.5 mph - N/A   Mostly Cloudy
10:30 PM 73.4 °F - 69.8 °F 88% 29.92 in 6.2 mi South 12.7 mph - N/A   Mostly Cloudy
11:00 PM 73.4 °F - 69.8 °F 88% 29.92 in 6.2 mi South 13.8 mph - N/A Rain Light Rain Showers
11:30 PM 73.4 °F - 69.8 °F 88% 29.92 in 6.2 mi South 12.7 mph - N/A   Mostly Cloudy